Location: *
(43.9905°S, 176.4941°W)
Time: 18:53:37
(UTC+00:00)

Cosmos 2369 Rocket - Pass Details

Date: 08 December 2019
Orbit: 828 x 853 km, 71.0° (Epoch: 18 January)

Event Time Altitude Azimuth Distance (km) Brightness Sun altitude
Exits shadow 09:54:08 34° 8° (N) 1,396 2.8 -19.2°
Maximum altitude 09:56:30 57° 70° (ENE) 1,008 2.3 -19.4°
Drops below altitude 10° 10:02:10 10° 147° (SSE) 2,515 5.1 -19.8°
Sets 10:04:41 0° 151° (SSE) 3,457 5.9 -20.0°
